www.pogodaiklimat.ru

Погода и климат >> Архив погоды >> Мексика >> Прогресо


ПОГОДА в Прогресо

  • Прогноз погоды в Прогресо
  • Монитор погоды в Прогресо

АРХИВ ПОГОДЫ в Прогресо

Время (UTC), дата Ветер
(напр.,м/с)
 
Видим.   Явления Облачность Т
(С)
Тd
(С)
f
(%)
Тe
(С)
Тes
(С)
Комфортность P
(гПа)
Po
(гПа)
Тmin
(С)
Tmax
(С)
R
(мм)
R24
(мм)
S
(см)
12 10.07 ЮВ 2 20 км 1/0 2000 м
[Ac lent]
+24.0 +22.9 94 +32 +32 очень
душно
1014.5 1014.3 +23.8 +35.0
15 10.07 ЮВ 3 20 км 3/3 600 м
[Cu med, cong]
+29.2 +23.4 71 +40 +47 очень
душно
1016.0 1015.8
18 10.07 ЮВ 4 20 км 3/3 600 м
[Cu med, cong]
+31.4 +23.8 64 +43 +53 опасность
перегрева
1015.7 1015.5 +23.8 +34.9
21 10.07 СВ 5 20 км 5/1 900 м
[Cu med, cong Cs]
+30.5 +26.3 78 +46 +52 опасность
перегрева
1014.1 1013.9
00 11.07 СВ 4 20 км 5/1 900 м
[Cu med, cong Cs]
+30.0 +25.9 79 +45 +45 опасность
перегрева
1013.2 1013.0 +23.8 +36.2
03 11.07 ЮВ 3 5000 м 3/3 800 м
[Cu hum]
+28.8 +25.3 81 +42 +42 опасность
перегрева
1014.9 1014.7
06 11.07 Ю 2 5000 м ясно +26.2 +23.7 86 +36 +36 очень
душно
1014.2 1014.0 +36.2
09 11.07 ЮВ 1 5000 м ясно +24.8 +23.0 90 +33 +33 очень
душно
1013.2 1013.0
12 11.07 Ю 1 20 км 3/0
[Cs]
+23.8 +22.8 94 +31 +32 очень
душно
1013.4 1013.2 +23.2 +36.2
15 11.07 ЮВ 2 20 км 3/3 600 м
[Cu med, cong]
+28.8 +22.4 68 +38 +46 очень
душно
1014.1 1013.9
18 11.07 ЮВ 2 20 км 3/3 600 м
[Cu med, cong]
+33.4 +25.1 62 +47 +63 опасность
перегрева
1013.2 1013.0 +23.2 +34.1
21 11.07 СВ 4 20 км 6/3 750 м
[Cu med, cong Ac As]
+32.2 +25.2 67 +46 +50 опасность
перегрева
1011.1 1010.9
00 12.07 С 2 20 км 9/3 750 м
[Cu med, cong Ac As]
+30.0 +24.9 74 +43 +43 опасность
перегрева
1011.1 1010.8 +23.2 +35.8
03 12.07 С 2 5000 м 5/1 750 м
[Cu hum As trans]
+28.8 +25.6 83 +43 +43 опасность
перегрева
1012.4 1012.2
06 12.07 ЮВ 3 5000 м 5/0 2000 м
[As trans]
+27.4 +24.7 85 +39 +39 очень
душно
1013.1 1012.9 +23.2 +35.8
09 12.07 Ю 2 5000 м ясно +26.0 +24.4 91 +36 +36 очень
душно
1011.0 1010.8
12 12.07 ЮВ 1 20 км 5/0 2000 м
[Ac As]
+24.4 +23.6 95 +33 +33 очень
душно
1011.6 1011.4 +24.2 +35.8
15 12.07 Ю 6 20 км 6/3 600 м
[Cu hum Ac lent]
+30.0 +25.1 75 +43 +46 опасность
перегрева
1012.4 1012.2
18 12.07 Ю 4 20 км 9/4 600 м
[Cu med, cong Ac As]
+33.6 +23.8 57 +45 +49 опасность
перегрева
1012.5 1012.3 +24.2 +34.1
21 12.07 Ю 4 20 км 8/5 600 м
[Cu med, cong Ac trans]
+35.6 +24.0 51 +47 +50 опасность
перегрева
1010.2 1010.0
00 13.07 В 4 20 км 9/6 600 м
[Sc As op]
+31.6 +25.5 70 +46 +46 опасность
перегрева
1009.7 1009.5 +24.2 +37.3
03 13.07 ЮВ 3 5000 м 4/4 600 м
[Sc]
+29.0 +24.7 78 +41 +41 опасность
перегрева
1010.9 1010.7
06 13.07 ЮВ 3 5000 м 1/1 600 м
[Sc]
+26.0 +22.7 82 +34 +34 очень
душно
1010.9 1010.7 +24.2 +37.3
09 13.07 ЮВ 3 5000 м ясно +24.8 +22.9 89 +33 +33 очень
душно
1011.6 1011.4
12 13.07 ЮВ 3 20 км 6/4 600 м
[Sc Ac und]
+24.2 +23.1 94 +32 +32 очень
душно
1012.5 1012.3 +23.8 +37.3
15 13.07 ЮВ 5 20 км 10/1 600 м
[Frnb Ac As]
+28.8 +24.7 79 +41 +43 опасность
перегрева
1014.1 1013.9
18 13.07 ЮВ 5 20 км 8/4 600 м
[Cu med, cong As op]
+34.2 +22.3 50 +43 +47 опасность
перегрева
1013.5 1013.3 +23.8 +34.5
21 13.07 СВ 4 20 км 10/3 750 м
[Cu med, cong Ac As]
+33.4 +23.6 57 +45 +46 опасность
перегрева
1012.1 1011.9
00 14.07 В 3 20 км 6/1 750 м
[Cu hum As trans]
+30.6 +26.4 78 +47 +47 опасность
перегрева
1011.7 1011.5 +23.8 +36.3
03 14.07 В 4 5000 м 3/0 2000 м
[As trans]
+28.6 +26.2 87 +43 +43 опасность
перегрева
1012.6 1012.4
06 14.07 ЮВ 4 5000 м 3/0 2000 м
[Ac trans]
+26.4 +23.4 84 +36 +36 очень
душно
1014.1 1013.9 +23.8 +36.3
09 14.07 ЮВ 4 5000 м 3/0 2000 м
[Ac trans]
+25.2 +23.5 90 +34 +34 очень
душно
1013.7 1013.5
12 14.07 ЮВ 4 20 км 4/0 2000 м
[Ac As Ci]
+24.2 +23.7 97 +33 +33 очень
душно
1014.2 1014.0 +24.0 +36.3
15 14.07 ЮВ 3 20 км 3/3 600 м
[Cu med, cong]
+28.2 +23.8 77 +39 +46 очень
душно
1015.1 1014.9
18 14.07 ЮВ 4 20 км 3/3 <50 м
[Cu med, cong]
+32.8 +26.5 70 +50 +60 опасность
перегрева
1015.4 1015.2 +24.0 +35.5
21 14.07 В 5 20 км 6/4 900 м
[Cu hum Cs]
+31.4 +25.5 71 +46 +49 опасность
перегрева
1012.7 1012.5
00 15.07 В 7 20 км 5/4 900 м
[Cu med, cong Cs]
+30.1 +25.4 76 +44 +44 опасность
перегрева
1012.6 1012.4 +24.0 +37.8
03 15.07 В 4 5000 м 1/1 900 м
[Cu hum]
+28.2 +25.8 87 +42 +42 опасность
перегрева
1013.7 1013.5
06 15.07 ЮВ 2 5000 м ясно +27.4 +23.5 79 +37 +37 очень
душно
1014.8 1014.6 +24.0 +37.8
09 15.07 ЮВ 3 5000 м ясно +26.2 +23.7 86 +36 +36 очень
душно
1013.6 1013.4
12 15.07 ЮВ 2 20 км ясно +24.7 +23.6 94 +34 +34 очень
душно
1014.5 1014.3 +24.0 +37.8
15 15.07 ЮВ 2 20 км 3/3 600 м
[Cu med, cong]
+28.8 +24.7 79 +41 +50 опасность
перегрева
1015.5 1015.3
18 15.07 СВ 4 20 км 3/3 600 м
[Cu med, cong]
+32.0 +25.3 68 +46 +57 опасность
перегрева
1015.5 1015.3 +24.0 +34.5
21 15.07 СВ 7 20 км 5/3 600 м
[Cu med, cong Ci]
+31.8 +26.2 72 +48 +50 опасность
перегрева
1013.6 1013.4
00 16.07 В 6 20 км 3/1 600 м
[Sc Ci fib]
+30.2 +26.5 81 +47 +47 опасность
перегрева
1013.4 1013.2 +24.0 +34.5
03 16.07 В 7 5000 м 3/3 600 м
[Cu hum]
+28.2 +25.8 87 +42 +42 опасность
перегрева
1014.0 1013.8
06 16.07 ЮВ 3 5000 м ясно +27.0 +25.1 89 +39 +39 очень
душно
1015.7 1015.5 +24.0 +34.5
09 16.07 ЮВ 2 5000 м 1/1 600 м
[Cu hum]
+25.2 +24.1 94 +35 +35 очень
душно
1014.2 1014.0
12 16.07 ЮВ 3 20 км 3/3 600 м
[Cu hum]
+24.4 +23.0 92 +32 +33 очень
душно
1015.1 1014.9 +23.8 +34.5
15 16.07 ЮВ 3 20 км 5/4 630 м
[Cu med, cong Ac cast]
+30.4 +25.3 74 +44 +50 опасность
перегрева
1017.0 1016.8
18 16.07 СВ 6 20 км 6/4 720 м
[Cu med, cong Ac trans Ci]
+31.4 +25.8 72 +46 +51 опасность
перегрева
1016.7 1016.5 +23.8 +33.4
21 16.07 В 5 20 км 6/4 750 м
[Cb calv As op Ci fib]
+31.8 +25.7 70 +47 +50 опасность
перегрева
1015.2 1015.0
00 17.07 Ю 2 20 км слаб. морось 9/4 750 м
[Cb calv As op]
+27.5 +25.5 89 +40 +41 очень
душно
1015.5 1015.3 +23.8 +33.4 1
03 17.07 В 4 5000 м {морось} 9/5 750 м
[Sc As op]
+27.3 +26.4 95 +42 +42 опасность
перегрева
1016.6 1016.4 0.5
06 17.07 ЮВ 2 5000 м {морось} 4/1 750 м
[Sc Ac trans]
+27.2 +25.6 91 +40 +40 очень
душно
1016.9 1016.7 +23.8 +33.4 0.5
09 17.07 ЮВ 2 5000 м 3/0 1500 м
[As trans]
+25.4 +24.3 94 +35 +35 очень
душно
1015.9 1015.7

 

Местоположение метеостанции Прогресо (Мексика): широта 21.30 долгота -89.65 высота над уровнем моря 14 м.

В архиве по умолчанию представлена погода в Прогресо за последнюю неделю. Архивные данные за месяц целиком и за предыдущие месяцы, начиная с января 2011 года, Вы можете получить, выбрав интересующий диапазон дат из раскрывающегося списка и нажав кнопку "Ввод!".


*Определитесь, кто Вы:
робот инопланетянин человек

Внимание! Время в таблицах - всемирное. Для получения местного времени необходимо прибавить поправку, которая равна -6 ч.

Смотрите также архив погоды в соседних городах и на ближайших метеорологических станциях:

Погода в Мериде 2 (Мексика) (34 км)
Погода в Мериде (Мексика) (36 км)
Погода в Вальядолиде (Мексика) (166 км)
Погода в Кампече (Мексика) (187 км)
Погода в Фелипе-Каррильо-Пуэрто (Мексика) (255 км)
Погода в Четумале (Мексика) (344 км)
Погода в Белизе (Белиз) (443 км)
Погода во Флоресе (Гватемала) (488 км)
Погода в Кабо-Сан-Антонио (Куба) (490 км)
Погода в Вильяэрмосе (Мексика) (504 км)

Пояснения к столбцам:

Ветер - указаны скорость ветра в м/с - средняя за 10 мин, порывы в срок и между сроками (в фигурных скобках) и направление, откуда дует ветер: С - северный, СВ - северо-восточный, В - восточный, ЮВ - юго-восточный, Ю - южный, ЮЗ - юго-западный, З - западный, СЗ - северо-западный.
Видимость - горизонтальная дальность видимости в метрах или километрах. При видимости от 1 до 10 км при отсутствии осадков обычно наблюдается дымка, при ухудшении видимости до 1 км и менее - туман. В сухую погоду видимость может ухудшаться дымом, пылью или мглою.
Явления - указаны атмосферные явления, наблюдавшиеся в срок или в последний час перед сроком; фигурными скобками обозначены явления, наблюдавшиеся между сроками (за 1-3 часа до срока); квадратными скобками обозначены град или гололедные отложения с указанием их диаметра в мм.
Облачность - указаны через наклонную черту общая и нижняя облачность в баллах и высота нижней границы облаков в метрах; квадратными скобками обозначены формы облаков: Ci - перистые, Cs - перисто-слоистые, Cc - перисто-кучевые, Ac - высококучевые, As - высокослоистые, Sc - слоисто-кучевые, Ns - слоисто-дождевые, Cu - кучевые, Cb - кучево-дождевые. Подробнее классификацию облаков см. в Атласе облаков (PDF).
T - Температура воздуха - температура, измеренная на высоте 2 м над землей.
Td - Температура точки росы - температура, при понижении до которой содержащийся в воздухе водяной пар достигнет насыщения.
f - Относительная влажность воздуха - влажноcть воздуха, измеренная на высоте 2 м над землей.
Te - Эффективная температура - температура, которую ощущает одетый по сезону человек в тени. Характеристика душности погоды. При расчете учитывается влияние влажности воздуха и скорости ветра на теплоощущения человека.
Tes - Эффективная температура на солнце - температура, которую ощущает человек, с поправкой на солнечный нагрев. Характеристика знойности погоды. Зависит от высоты солнца над горизонтом, облачности и скорости ветра. Ночью, в пасмурную погоду, а также при ветре 12 м/с и более поправка равна нулю.
P - Атмосферное давление - приведенное к уровню моря атмосферное давление.
Po - Атмосферное давление - измеренное на уровне метеостанции атмосферное давление.
Tmin - Минимальная температура - минимум температуры воздуха на высоте 2 м над землей.
Tmax - Максимальная температура - максимум температуры воздуха на высоте 2 м над землей.
R - Количество осадков - Количество выпавших осадков за период времени, мм. При наведении курсора мыши на число - период времени, за который выпало указанное количество осадков.
R24 - Количество осадков - Количество выпавших осадков за 24 часа, мм.
S - Снежный покров - Высота снежного покрова, см. При наведении курсора мыши на число - состояние снежного покрова и степень покрытия местности в баллах.